Location: Peebles
(55.6412°N, 3.1714°W)
Time: 12:26:39
(UTC+00:00)

RS-15 - Pass Details

Date: 29 November 2023
Orbit: 1893 x 2151 km, 64.8° (Epoch: 02 March)

Event Time Altitude Azimuth Distance (km) Brightness Sun altitude
Exits shadow 01:50:17 52° 22° (NNE) 2,416 8.5 -50.2°
Drops below altitude 10° 01:59:36 10° 70° (ENE) 4,391 10.3 -49.3°
Sets 02:03:00 0° 75° (ENE) 5,361 10.9 -48.9°
